Regional Weather Roundup
Issued by NWS

Home | Current Version | Previous Version | Graphics & Text | Print | Product List | Glossary On
Versions: 1 2 3 4 5 6 7 8 9 10 11 12 13 14 15 16 17 18 19 20 21 22 23 24 25 26 27 28 29 30 31 32 33 34 35 36 37 38 39 40 41 42 43 44 45 46 47 48 49 50
112
ASUS43 KLMK 281402
RWRKY
KENTUCKY REGIONAL WEATHER ROUNDUP
NATIONAL WEATHER SERVICE LOUISVILLE KY
1000 AM EDT FRI JUL 28 2017

NOTE "FAIR" INDICATES FEW OR NO CLOUDS BELOW 12,000 FEET
WITH NO SIGNIFICANT WEATHER AND/OR OBSTRUCTIONS TO VISIBILITY.

KYZ001>023-026-027-061>063-070>075-281500-
WESTERN AND SOUTH CENTRAL KENTUCKY

CITY           SKY/WX    TMP DP  RH WIND       PRES   REMARKS
PADUCAH        CLOUDY    78  74  87 NW7       29.85R
HENDERSON      CLOUDY    77  76  96 N5        29.84S
OWENSBORO      CLOUDY    78  75  90 N5        29.84R FOG
HOPKINSVILLE   CLOUDY    77  77 100 SW7       29.84F
BOWLING GREEN  CLOUDY    80  76  87 SW10      29.85S
GLASGOW        NOT AVBL
$$

KYZ024-025-028>034-038-045-046-053-281500-
NORTH CENTRAL KENTUCKY

CITY           SKY/WX    TMP DP  RH WIND       PRES   REMARKS
LOUISVILLE/SDF LGT RAIN  76  74  93 SW3       29.81S FOG
LOUISVILLE/LOU CLOUDY    77  75  93 CALM      29.82S
FORT KNOX      DRIZZLE   75  75 100 W3        29.81S FOG
$$

KYZ035>037-039>044-047>052-055>060-089>105-281500-
NORTHEAST KENTUCKY

CITY           SKY/WX    TMP DP  RH WIND       PRES   REMARKS
LEXINGTON      CLOUDY    76  71  85 CALM      29.85F
COVINGTON      CLOUDY    72  72 100 NE7       29.86S
FRANKFORT      CLOUDY    76  71  85 SW5       29.83S
$$

KYZ054-064>069-076>088-106>120-281500-
SOUTHEAST KENTUCKY

CITY           SKY/WX    TMP DP  RH WIND       PRES   REMARKS
JACKSON        CLOUDY    72  70  93 CALM      29.87F FOG
LONDON         CLOUDY    76  71  85 S7        29.87F
SOMERSET       RAIN      72  72 100 W5        29.88S
MIDDLESBORO    CLOUDY    72  70  96 CALM      29.90S
MONTICELLO     CLOUDY    74  73  97 W13       29.88F
$$





USA.gov is the U.S. government's official web portal to all federal, state and local government web resources and services.